Lapse_Rate
5.7 5.9 5.8 5.9 6.2 6.2 6.2 6.2 6.1 6.0 6.0 6.0 6.0 6.1 6.0 5.9 5.9 6.0 6.0 6.0 6.1 6.1 6.0 6.2 6.2 6.2 6.1 6.2 6.2 6.1 6.0 6.3 6.2 6.2 6.0 6.0 5.4 5.8 5.5 5.8 6.0 6.0 5.8 6.0 5.7 5.5 5.9 6.7 6.8 6.6 6.4 6.2 6.3 6.3
6.0 5.9 5.9 5.8 5.9 6.2 6.1 6.1 6.0 5.9 5.9 6.0 6.0 6.0 6.1 6.1 5.8 5.9 6.1 6.1 5.9 6.0 6.2 6.3 6.4 6.4 6.3 6.3 6.3 6.1 6.1 6.0 5.7 5.7 5.8 5.4 5.3 5.1 5.2 5.0 5.8 5.5 6.4 6.2 6.4 6.2 6.8 6.8 6.6 6.6 6.7 6.3 6.4 6.6
5.9 5.9 6.1 5.8 6.0 6.0 6.1 6.0 6.0 6.0 6.0 5.8 5.9 5.9 5.9 6.1 6.0 5.9 6.1 6.1 5.9 6.0 6.3 6.4 6.6 6.6 6.7 6.7 6.6 6.3 6.5 6.4 6.0 5.9 5.7 5.5 5.4 5.4 5.3 5.2 5.5 5.7 6.2 6.1 6.1 6.9 6.7 6.7 6.9 6.8 6.3 6.3 6.4 6.3
5.4 5.9 6.0 6.0 5.9 6.0 6.0 6.1 6.1 5.9 6.1 6.0 6.0 6.0 6.0 6.1 6.0 5.9 6.1 6.4 6.0 5.9 6.0 6.6 6.5 6.5 6.8 6.6 6.6 6.2 6.3 6.2 6.1 6.0 5.9 6.1 6.1 6.0 5.6 5.5 5.2 5.8 6.1 6.3 6.0 6.8 6.4 6.6 6.3 6.1 6.3 6.4 6.1 6.4
5.1 5.7 6.0 5.9 5.9 6.0 5.8 5.8 5.9 6.0 6.2 6.0 5.9 5.9 6.2 6.0 5.8 6.1 6.6 6.6 6.2 5.9 5.8 6.1 6.7 6.8 6.5 6.5 6.6 6.2 6.0 6.0 6.2 5.9 5.8 5.8 5.6 6.0 5.6 5.1 5.3 6.2 6.2 6.2 6.2 6.9 6.2 6.0 5.8 6.0 6.3 6.2 6.7 6.9
4.8 5.1 5.5 5.7 5.9 5.8 5.7 5.8 5.7 5.7 5.7 5.6 5.8 5.9 6.0 5.9 6.0 5.9 6.0 6.0 6.1 6.1 5.8 5.6 5.9 6.5 6.5 6.1 6.2 6.2 6.3 6.3 6.3 6.2 6.1 6.1 6.1 6.2 5.7 5.3 5.6 6.8 6.2 6.3 6.4 6.4 6.3 6.1 6.1 6.2 6.1 6.4 6.0 6.0
4.7 4.6 4.4 4.5 4.6 5.2 5.6 5.5 5.5 5.5 5.5 5.5 5.6 5.7 5.7 5.7 5.7 5.7 5.6 5.5 6.2 6.0 5.8 5.3 4.9 5.3 6.2 6.3 6.5 6.6 6.6 6.5 6.5 6.5 6.3 6.2 6.3 6.5 6.3 5.6 7.8 6.9 6.8 6.4 6.6 6.3 6.1 6.3 6.3 6.5 6.5 6.1 5.9 5.4
5.2 4.9 4.8 5.2 5.2 5.3 4.8 5.1 5.2 5.4 5.3 5.2 5.5 5.8 5.7 5.7 5.6 5.6 5.4 5.7 5.8 5.9 5.7 5.4 4.8 4.9 5.1 5.6 6.3 6.6 6.7 6.5 6.1 6.2 6.2 6.5 6.1 6.2 5.9 7.7 7.0 6.6 6.4 6.4 6.3 6.0 6.1 6.1 6.4 6.4 6.4 6.3 6.3 6.6
5.9 5.6 5.4 5.5 5.5 5.6 5.5 5.3 5.5 5.5 5.6 5.8 5.6 5.6 5.6 5.4 5.5 5.5 5.6 5.6 5.7 6.1 6.1 5.3 4.8 4.9 5.1 5.4 5.8 6.1 6.1 6.3 6.2 6.2 6.6 6.2 6.0 5.9 7.4 7.2 6.8 6.5 6.1 6.0 5.8 6.1 6.3 6.1 6.4 6.1 5.8 6.2 6.7 6.8
6.2 6.1 6.0 5.9 6.0 5.9 5.7 5.7 5.7 5.6 5.6 5.8 5.9 5.5 5.1 5.1 5.5 5.5 5.2 5.7 5.7 5.4 5.4 5.2 5.0 5.6 5.8 5.8 5.7 5.3 5.5 5.6 5.7 5.9 6.2 6.0 6.4 6.8 7.0 6.6 6.4 6.4 6.4 6.5 6.3 6.4 6.6 6.6 6.5 7.0 6.8 7.0 7.3 7.6
6.3 6.3 6.4 6.3 6.2 6.1 6.1 5.9 5.9 6.0 5.9 5.8 5.6 5.5 5.5 5.8 5.6 5.2 5.1 5.0 4.9 5.0 4.9 5.4 5.7 6.0 6.0 6.0 6.0 6.1 5.8 5.7 5.4 5.8 5.5 5.5 5.8 6.3 6.2 6.2 6.3 6.2 6.2 6.5 6.7 6.8 6.9 6.7 6.9 7.0 7.3 7.4 7.5 7.5
6.3 6.5 6.5 6.4 6.5 6.5 6.2 6.2 6.1 6.0 6.1 6.0 5.8 5.3 5.1 4.8 5.1 5.2 5.4 5.2 5.1 5.3 5.7 6.1 6.4 6.4 6.2 5.9 6.0 5.9 5.8 5.7 6.0 5.4 5.3 5.7 6.2 6.5 6.2 6.1 6.1 6.1 6.3 6.3 6.4 6.4 6.7 7.0 6.8 6.7 7.2 7.4 7.7 7.7
6.4 6.2 6.3 6.5 6.5 6.5 6.5 6.5 6.4 6.4 6.4 6.0 5.4 5.6 5.4 5.4 5.5 5.3 5.4 5.5 5.8 6.2 6.3 6.6 6.5 6.3 6.0 5.9 6.1 6.1 5.8 5.7 5.6 5.6 5.7 6.4 6.5 6.3 6.3 6.2 6.1 6.3 6.6 6.7 7.0 7.2 6.9 7.2 7.3 7.3 7.6 7.8 7.8 7.8
6.4 6.5 6.4 6.4 6.4 6.4 6.2 6.2 6.3 6.3 6.3 6.3 5.8 5.8 6.3 6.0 5.7 5.7 6.0 6.4 6.6 6.6 6.5 6.2 6.1 6.0 5.9 5.9 6.0 6.1 5.8 5.4 5.4 5.4 6.7 6.7 6.5 6.4 6.5 6.7 6.8 6.9 7.1 7.2 7.3 7.3 7.4 7.3 7.4 7.6 7.8 7.7 7.6 7.6
6.6 6.6 6.4 6.4 6.3 6.3 6.3 6.2 6.1 6.1 6.1 6.1 6.2 6.3 6.0 6.2 6.3 6.5 6.5 6.5 6.6 6.6 6.4 6.2 6.1 6.1 5.9 5.7 5.8 5.7 5.5 5.3 5.9 7.1 7.2 6.9 6.8 6.8 7.0 7.1 7.1 7.2 7.3 7.2 7.2 7.1 7.2 7.4 7.6 7.6 7.6 7.6 7.4 7.4
7.0 6.8 6.5 6.2 6.2 6.6 6.4 6.3 6.3 6.2 6.1 6.0 6.1 6.3 6.3 6.4 6.5 6.5 6.5 6.5 6.4 6.3 6.2 5.9 6.0 6.0 6.0 5.9 5.6 5.7 6.0 7.0 7.7 7.4 7.2 7.1 7.2 7.2 7.1 7.0 7.2 7.2 7.1 7.0 7.0 7.2 7.3 7.5 7.5 7.3 7.3 7.5 7.6 7.9
7.4 7.2 7.0 6.8 6.4 6.3 6.1 5.8 5.8 5.7 5.4 5.4 5.3 5.7 6.0 6.3 6.3 6.4 6.4 6.4 6.2 6.2 6.1 6.0 6.1 6.5 5.9 5.6 5.7 6.8 7.5 7.6 7.3 7.1 7.0 7.0 6.9 6.9 7.1 7.1 7.0 7.0 7.2 7.3 7.4 7.5 7.5 7.4 7.2 7.4 7.4 7.5 7.6 8.0
7.7 7.5 7.3 6.9 6.8 6.5 6.2 6.2 5.9 5.6 5.5 5.6 5.7 6.0 6.2 6.2 6.2 6.2 6.1 6.4 6.5 6.6 6.8 6.8 6.4 6.2 6.3 6.8 7.5 7.6 7.3 7.1 7.0 6.9 6.8 6.9 7.1 7.2 7.1 7.1 7.1 7.3 7.4 7.5 7.5 7.4 7.4 7.3 7.4 7.6 7.9 8.1 8.0 7.9
7.5 7.4 7.2 6.9 6.6 6.4 6.3 6.0 5.9 5.7 5.9 6.1 6.2 6.4 6.5 6.6 6.6 6.7 6.8 7.0 7.2 7.4 7.2 6.7 6.5 7.0 7.8 7.9 7.6 7.1 6.9 6.8 6.8 6.9 7.2 7.2 7.1 7.0 7.0 7.1 7.2 7.4 7.3 7.5 7.5 7.6 7.6 7.5 7.6 7.8 8.1 8.0 7.8 7.8
7.4 7.2 7.1 7.1 7.1 6.9 6.8 6.6 6.6 6.5 6.5 6.6 6.8 6.9 7.0 7.2 7.2 7.3 7.5 7.5 7.4 7.1 6.8 6.8 7.8 8.1 7.6 7.1 7.0 6.9 6.9 6.9 6.8 6.9 7.0 7.1 7.2 7.2 7.3 7.3 7.3 7.5 7.7 7.7 7.6 7.7 7.8 7.8 7.9 7.8 7.8 7.7 7.8 7.8
7.2 7.2 7.2 7.1 7.1 7.1 7.0 6.9 7.1 7.1 7.1 7.3 7.4 7.5 7.5 7.6 7.6 7.6 7.5 7.4 7.3 7.4 7.4 7.9 7.5 7.2 7.3 7.2 7.0 7.1 7.3 7.4 7.3 7.1 7.1 7.2 7.2 7.4 7.2 7.5 7.6 7.6 7.7 7.8 7.7 7.9 8.0 7.9 7.8 7.8 7.7 7.8 7.8 7.6
7.1 7.0 7.0 7.0 7.0 7.1 7.1 7.2 7.2 7.4 7.4 7.5 7.4 7.4 7.5 7.5 7.6 7.5 7.4 7.2 7.2 7.5 7.5 7.4 7.4 7.5 7.3 7.1 7.2 7.3 7.4 7.3 7.2 7.2 7.2 7.3 7.4 7.5 7.6 7.7 7.8 8.1 8.2 8.0 7.9 7.9 7.9 7.8 7.6 7.7 7.7 7.7 7.7 7.6
7.1 7.1 7.0 7.0 7.0 7.0 7.0 7.3 7.4 7.4 7.2 7.3 7.5 7.5 7.6 7.5 7.4 7.3 7.2 7.2 7.4 7.7 7.9 7.8 7.7 7.5 7.4 7.5 7.5 7.6 7.6 7.4 7.4 7.7 7.8 7.6 7.7 7.6 7.6 8.0 8.1 7.9 8.0 8.1 7.9 7.8 7.7 7.6 7.5 7.5 7.6 7.7 7.6 7.6
7.0 7.0 6.9 7.0 7.0 7.1 7.3 7.3 7.4 7.5 7.5 7.7 7.8 7.6 7.6 7.5 7.4 7.4 7.4 7.6 8.0 8.1 8.0 7.8 7.7 7.7 7.9 8.1 8.0 8.0 7.8 7.7 7.8 7.9 7.8 7.8 7.8 8.0 7.9 8.0 8.3 8.2 8.0 8.0 7.9 7.7 7.6 7.6 7.5 7.6 7.6 7.6 7.6 7.5
7.1 7.1 7.0 7.1 7.3 7.4 7.5 7.7 7.8 7.8 7.9 7.9 7.7 7.6 7.5 7.4 7.2 7.1 7.1 8.0 8.2 8.0 7.8 7.8 7.8 7.9 8.0 8.1 8.2 8.1 7.9 7.9 7.9 7.9 7.9 7.9 8.0 8.0 8.0 8.0 8.2 8.3 8.0 8.2 8.1 8.0 7.8 7.7 7.6 7.4 7.4 7.5 7.4 7.4
7.2 7.3 7.4 7.6 7.7 7.8 8.0 8.0 8.0 8.0 7.9 7.8 7.7 7.7 7.7 7.5 7.3 7.2 7.7 8.2 7.9 7.8 7.6 7.7 7.8 7.9 8.0 7.9 7.9 7.8 7.8 7.9 7.9 8.0 8.0 8.1 8.1 8.0 8.0 8.0 8.1 8.4 8.2 8.2 8.0 8.0 7.9 7.7 7.7 7.6 7.6 7.5 7.5 7.5
7.4 7.7 7.8 7.7 7.8 7.9 7.9 8.0 8.0 7.8 7.7 7.7 7.7 7.8 7.7 7.4 7.2 7.5 8.1 7.8 7.6 7.7 7.7 7.7 7.6 7.7 7.8 7.9 7.7 7.6 7.6 7.7 7.8 8.0 8.1 8.1 8.0 7.9 7.8 7.9 8.1 8.2 8.3 8.2 8.0 7.9 7.9 7.8 7.7 7.7 7.6 7.6 7.7 7.7
7.8 7.8 8.0 8.0 8.0 8.0 7.9 7.8 7.8 7.8 7.7 7.7 7.8 7.6 7.4 7.4 7.7 8.0 7.7 7.7 7.6 7.5 7.4 7.6 7.7 7.8 7.8 7.9 7.9 8.0 7.9 7.9 7.9 7.9 7.9 8.0 7.8 7.9 7.8 7.9 7.9 7.9 7.8 7.8 7.8 7.8 7.8 7.9 7.8 7.7 7.7 7.7 7.7 7.7
8.0 8.1 8.1 8.1 8.0 7.8 7.7 7.8 7.9 7.9 8.0 7.8 7.5 7.4 7.4 7.4 7.6 7.9 8.1 7.8 7.7 7.7 7.8 8.1 8.3 8.2 8.1 8.1 8.0 8.0 7.9 7.9 7.8 8.0 8.0 8.0 8.0 7.9 7.9 7.8 7.7 7.6 7.6 7.6 7.6 7.6 7.7 7.8 7.9 7.9 7.8 7.8 7.7 7.7
8.2 8.1 7.9 7.8 7.7 7.6 7.8 7.9 7.8 7.8 7.6 7.4 7.4 7.3 7.4 7.7 8.2 8.1 7.6 7.6 7.7 7.8 7.9 8.1 8.3 8.3 8.2 8.2 8.2 8.1 8.0 8.0 8.0 7.9 7.9 7.9 7.9 7.9 7.8 7.7 7.6 7.5 7.4 7.3 7.3 7.4 7.4 7.5 7.7 7.8 7.8 7.8 7.8 7.6
7.9 7.8 7.7 7.7 7.6 7.7 7.6 7.7 7.6 7.5 7.5 7.6 7.7 7.4 7.4 7.7 7.9 7.9 7.9 7.9 7.9 8.0 8.1 8.2 8.2 8.1 8.0 8.0 8.0 8.1 8.0 7.9 7.8 7.7 7.6 7.6 7.6 7.5 7.4 7.2 7.2 7.2 7.1 7.0 7.0 7.1 7.1 7.2 7.2 7.3 7.3 7.2 7.3 7.3
7.4 7.3 7.1 7.0 7.0 7.2 7.2 7.2 7.2 7.1 7.2 7.3 7.5 7.9 7.9 7.9 7.8 7.5 7.7 7.8 7.9 7.9 7.9 7.7 7.7 7.6 7.6 7.7 7.8 7.8 7.7 7.7 7.6 7.5 7.4 7.3 7.2 7.1 7.0 6.9 6.9 6.9 6.9 6.9 6.8 6.8 6.8 6.9 6.9 7.0 7.2 7.3 7.4 7.5
7.2 7.2 7.0 6.9 6.9 6.9 7.0 7.0 7.0 7.1 7.3 7.4 7.5 7.7 7.8 7.6 7.4 7.4 7.5 7.5 7.5 7.4 7.4 7.4 7.4 7.4 7.5 7.7 7.8 7.8 7.7 7.5 7.4 7.3 7.3 7.1 7.0 6.9 6.8 6.7 6.7 6.7 6.7 6.7 6.7 6.7 6.8 6.8 6.8 6.9 7.0 7.2 7.4 7.5
Wind_Speed
11 20 24 25 25 24 21 19 17 16 14 11 7 4 3 3 4 3 1 4 4 3 4 1 0 3 1 2 4 3 4 4 3 3 3 4 4 5 1 4 5 5 3 5 2 3 8 1 4 3 7 4 11 15
6 10 20 25 25 24 22 20 18 17 15 14 12 9 6 3 2 3 2 3 3 3 4 2 3 3 3 7 5 1 4 4 5 3 2 2 3 2 4 5 2 3 7 5 8 7 4 4 10 6 7 15 8 4
4 6 12 22 25 23 20 19 17 17 16 15 14 12 10 6 3 1 2 0 4 3 4 2 3 1 1 4 4 4 3 4 4 4 4 3 4 3 5 5 3 4 4 6 7 7 10 11 18 18 9 4 3 3
10 7 6 9 17 19 19 18 16 15 14 14 14 14 13 9 6 5 2 0 4 3 3 6 2 5 4 5 6 5 5 1 2 2 3 3 3 5 5 5 7 6 6 5 13 16 19 15 12 5 4 3 3 4
9 11 11 9 7 10 12 15 16 15 15 14 15 14 13 10 9 4 1 1 3 3 3 3 6 5 5 5 7 6 5 3 2 2 2 4 2 2 2 1 4 6 14 7 14 16 12 15 4 5 7 9 11 6
7 9 9 9 8 4 8 10 10 13 15 13 12 12 12 13 13 3 3 4 13 4 1 1 3 4 3 3 7 6 5 4 4 3 3 3 4 4 3 4 6 8 12 17 15 19 11 4 7 2 1 9 11 9
5 6 8 8 8 8 5 3 8 11 12 13 13 12 14 20 8 3 4 0 11 4 2 3 3 3 3 3 2 2 2 3 4 3 4 3 4 4 2 11 23 10 10 13 14 9 3 7 6 9 8 8 7 6
7 8 9 11 11 11 9 5 3 7 11 11 10 10 11 15 8 1 2 2 9 3 2 3 2 3 2 1 2 3 2 2 2 2 1 2 1 1 4 14 8 7 8 8 4 8 6 4 4 5 6 10 7 6
9 9 7 7 9 11 11 9 5 6 11 12 14 19 6 1 2 1 7 10 7 2 3 2 4 3 2 1 1 2 2 2 1 1 2 1 1 5 7 6 7 7 5 7 8 7 3 3 6 8 9 6 5 6
11 10 8 7 7 9 13 17 20 18 18 22 3 3 2 2 10 10 2 1 2 2 2 2 1 3 3 1 0 0 1 1 2 3 1 2 5 9 16 16 14 3 7 6 6 2 2 5 6 7 6 6 5 7
13 11 9 8 8 9 11 13 10 7 6 1 2 2 0 3 0 2 1 2 1 1 2 2 3 2 1 2 2 1 1 0 2 4 3 2 3 5 6 1 4 5 6 6 5 4 4 3 6 7 8 6 6 5
16 15 13 11 9 10 9 7 5 3 1 3 5 4 2 1 2 1 2 1 3 4 3 3 3 2 1 2 2 2 2 1 5 1 0 3 3 8 6 7 6 5 5 3 4 6 5 6 6 6 6 7 6 5
17 17 15 12 11 10 10 6 5 8 7 3 4 3 3 0 3 5 6 3 3 2 3 2 2 2 2 3 2 2 3 5 1 0 3 4 4 5 4 3 3 2 3 3 4 5 5 5 7 3 6 6 6 7
18 19 18 14 11 11 8 6 6 4 3 3 3 3 4 3 3 3 3 2 1 1 2 3 2 2 1 2 2 3 4 3 2 3 5 2 3 6 6 5 5 8 8 7 8 7 7 7 9 6 7 8 7 10
18 18 18 14 12 10 7 6 4 3 2 2 3 3 4 2 1 1 1 1 1 1 2 2 2 2 1 2 1 2 3 3 4 4 3 3 3 4 6 6 6 6 7 7 7 6 8 9 7 9 7 5 5 8
22 16 5 20 14 11 10 5 4 2 3 2 3 2 1 2 2 1 0 1 1 2 2 2 2 3 3 3 2 6 5 6 4 3 3 2 4 6 6 5 6 7 7 8 8 8 8 8 11 9 4 6 7 9
13 2 18 18 14 13 8 3 3 3 3 2 1 1 3 2 3 3 2 3 2 2 2 3 4 10 1 2 2 4 5 4 3 3 3 5 5 6 6 6 7 7 9 9 9 9 9 9 4 6 8 7 6 6
3 14 22 20 12 6 2 2 3 2 1 2 2 3 2 2 3 2 3 1 3 2 2 4 2 2 5 5 4 4 3 3 3 4 3 3 4 6 6 7 9 9 9 11 9 10 7 8 7 8 8 7 5 4
13 18 20 14 6 4 2 2 3 2 4 2 1 1 2 1 2 1 2 1 1 1 2 2 1 4 4 3 4 4 3 2 2 6 8 6 6 7 9 9 8 8 9 10 11 9 7 7 9 8 5 3 4 3
22 23 23 10 4 3 3 2 2 3 1 3 2 0 3 3 2 2 3 2 1 1 3 4 4 4 4 4 3 3 3 4 2 5 10 8 4 7 8 7 7 9 8 9 7 6 5 7 5 5 4 5 4 4
9 9 10 5 2 3 3 2 1 3 1 1 2 3 2 2 2 3 3 2 2 3 2 4 5 7 6 5 3 4 5 4 7 4 8 9 7 4 5 5 5 4 5 7 6 9 6 6 7 5 4 5 4 3
4 10 2 3 2 3 2 1 3 1 2 2 2 1 0 1 2 3 2 3 3 4 4 6 9 8 6 6 8 5 7 7 8 5 7 5 6 5 5 3 2 4 6 6 7 8 9 7 6 6 4 3 3 3
11 4 2 2 3 2 4 2 2 1 2 2 2 2 3 2 3 2 1 3 4 5 8 8 8 7 10 10 6 7 7 9 7 6 5 4 4 3 4 4 3 4 8 7 4 7 8 10 7 5 3 3 3 3
4 3 3 4 3 2 1 2 1 1 2 2 2 3 3 3 1 2 4 3 4 2 2 7 6 7 3 5 4 6 7 3 4 4 3 2 2 3 3 6 6 6 6 8 6 7 4 3 2 1 2 2 3 4
5 3 3 4 3 3 4 1 2 2 4 4 3 4 4 2 2 3 4 5 4 4 5 5 3 6 7 7 3 5 4 3 4 4 3 3 2 3 5 5 6 8 7 7 6 7 4 4 3 2 2 3 5 5
3 6 8 7 2 5 5 5 5 7 4 3 6 3 2 3 1 5 3 3 4 4 4 4 4 2 4 5 5 3 4 3 3 2 3 3 3 3 7 8 9 7 3 3 5 8 8 5 5 5 4 6 6 5
4 5 3 2 3 3 1 1 0 3 5 6 3 1 3 3 6 5 3 3 3 3 3 3 3 4 4 4 3 4 3 4 4 3 3 4 5 5 6 7 9 6 5 7 8 7 8 7 7 7 6 5 6 6
5 4 7 4 3 2 4 1 4 6 5 3 3 4 7 8 6 4 4 3 4 2 3 3 4 4 5 5 3 3 2 3 3 3 2 3 4 3 2 3 4 9 8 8 7 6 6 7 7 7 7 8 6 5
3 2 4 4 1 3 6 7 6 4 4 4 5 5 5 4 3 3 4 3 1 0 5 8 6 1 2 0 1 0 1 2 1 5 9 7 3 3 3 4 5 6 6 7 8 7 9 8 7 7 8 7 5 3
4 3 3 3 6 7 6 6 4 4 3 6 3 3 3 4 4 3 2 3 2 6 5 3 3 3 3 2 2 3 2 0 1 3 3 1 2 3 5 4 5 6 6 6 5 4 6 4 6 5 4 2 3 4
1 3 1 2 5 5 7 4 2 0 1 4 6 7 11 8 3 3 3 3 3 3 2 1 1 3 2 2 1 1 1 3 4 4 3 2 3 4 5 6 5 4 3 3 3 3 3 3 3 4 5 5 5 4
1 5 4 4 8 5 1 3 4 5 5 4 9 5 4 1 3 2 5 4 5 5 6 6 5 3 4 3 1 3 6 3 3 3 5 3 3 4 4 4 5 5 3 3 3 3 4 5 4 4 1 2 3 4
2 2 2 2 4 4 4 1 3 4 2 5 6 7 5 4 1 2 2 5 4 4 5 4 4 4 6 4 4 4 4 3 5 5 4 5 5 5 4 4 4 5 4 4 4 4 6 7 6 7 8 8 8 8
Wind_Direction
194 203 204 205 207 209 208 215 216 212 211 215 219 243 291 325 5 45 261 23 116 125 275 287 234 143 82 100 142 245 43 351 52 113 160 215 191 234 265 226 204 184 185 229 220 237 268 179 34 132 239 261 294 306
219 205 207 200 203 206 205 207 216 218 213 213 213 216 228 242 310 26 72 5 76 113 228 303 285 254 196 187 149 221 192 177 187 107 215 127 217 201 186 259 231 241 199 217 186 221 226 227 290 238 261 306 302 282
159 189 194 199 198 198 199 202 205 219 217 220 219 214 214 204 211 350 131 18 59 58 323 7 236 209 95 187 162 143 285 218 195 176 156 219 223 137 223 223 209 264 247 251 327 260 273 303 291 290 307 275 17 343
97 104 127 171 185 186 194 196 197 203 213 216 224 219 215 204 195 184 122 22 82 103 137 276 353 253 248 200 182 195 234 201 107 130 152 192 204 199 211 230 198 197 192 229 256 273 280 273 271 302 313 58 6 337
91 89 90 102 143 164 184 190 195 204 210 210 214 219 215 201 196 168 51 276 197 142 202 260 313 262 252 204 226 213 194 193 167 270 154 219 197 197 212 137 203 202 244 235 260 263 267 284 348 33 39 29 41 15
83 87 88 87 92 128 188 186 196 211 215 211 206 204 196 172 147 99 341 230 209 153 113 292 282 261 287 274 243 230 203 199 196 178 223 245 222 171 229 248 211 222 233 245 260 271 281 311 85 41 358 230 245 250
127 105 104 96 88 88 84 157 188 203 209 210 207 194 181 168 160 166 188 176 167 105 97 298 293 308 312 296 16 345 11 213 195 225 209 206 206 218 232 277 277 271 258 272 274 287 318 52 23 347 313 275 276 321
150 134 121 106 93 80 74 72 139 187 196 197 188 184 181 163 96 148 2 36 140 108 99 226 259 326 34 359 340 344 3 340 259 272 6 218 2 182 254 262 282 266 285 295 92 92 121 161 240 287 307 297 299 302
148 146 132 106 92 83 78 70 79 143 167 153 137 120 89 59 123 168 114 94 63 125 188 166 165 213 28 43 46 348 45 312 346 262 254 137 218 228 240 273 281 282 244 157 114 97 66 307 296 288 281 316 300 295
159 145 141 136 127 104 92 93 80 86 139 128 88 80 44 284 127 132 46 25 17 359 32 175 127 205 163 144 170 60 36 280 312 249 336 234 261 289 280 272 281 245 142 134 105 97 254 297 301 299 305 289 306 304
170 155 147 129 117 109 106 116 84 80 134 73 79 82 216 122 198 22 135 187 173 245 186 214 204 160 247 136 152 203 125 145 256 272 207 257 261 256 317 69 85 82 88 83 103 96 57 345 321 317 312 301 294 301
171 166 162 146 128 122 126 131 39 63 129 137 115 109 94 83 59 132 218 161 202 224 173 176 207 153 38 103 110 166 184 164 256 208 197 273 274 317 24 43 51 63 73 59 43 28 343 306 304 291 289 295 281 270
175 168 164 152 140 127 127 112 50 116 122 70 58 72 139 239 192 198 199 201 219 211 165 170 79 99 73 51 75 126 211 231 56 184 238 228 290 328 351 353 1 20 339 314 278 244 260 294 299 256 285 284 277 269
179 175 164 153 146 136 126 92 101 64 75 98 131 143 186 199 235 202 189 165 210 122 106 92 79 109 173 61 146 199 241 48 327 215 229 263 292 324 341 326 325 324 328 307 301 295 288 281 279 257 265 288 288 298
172 164 149 149 145 133 123 100 63 55 84 110 103 193 198 209 60 50 24 76 11 98 95 75 45 97 4 102 206 80 10 234 220 227 211 237 273 290 299 305 310 305 299 288 274 268 267 269 261 274 250 232 250 272
135 118 126 143 142 138 130 106 33 51 42 72 83 77 279 109 123 22 28 95 252 119 51 64 114 65 253 163 90 216 154 222 244 210 228 239 246 260 261 280 282 279 287 286 285 276 278 279 282 273 279 288 276 267
100 76 141 137 142 123 102 78 54 44 111 61 308 232 148 125 169 174 202 198 159 89 202 118 142 212 66 55 253 196 207 216 203 252 239 227 255 290 281 278 283 288 291 288 284 284 276 282 291 289 269 270 253 241
71 141 146 140 126 89 45 63 90 86 134 242 125 241 203 153 147 197 212 194 133 193 117 223 132 139 203 193 246 242 251 254 224 231 245 254 271 280 281 286 293 289 291 291 284 281 281 287 284 277 253 254 251 238
140 143 141 135 106 97 88 349 96 153 216 205 238 176 140 214 257 89 129 76 13 120 106 37 193 212 232 222 224 267 271 229 274 301 296 285 261 271 282 284 279 282 282 284 287 289 287 268 274 274 251 217 253 222
137 141 140 133 31 85 68 308 67 106 167 236 77 159 172 191 190 139 174 187 131 189 225 220 218 220 204 241 186 214 237 226 202 283 296 292 256 259 263 268 278 283 290 294 283 270 285 291 275 260 248 244 243 208
101 120 80 69 63 60 131 141 1 188 189 126 266 123 241 29 117 182 211 183 178 217 247 230 244 254 238 254 208 227 260 235 268 227 274 286 286 219 265 274 269 283 288 297 293 305 293 283 290 273 252 252 224 214
104 95 82 46 75 25 57 279 152 232 90 233 10 84 30 269 229 215 168 175 230 218 217 233 247 255 259 256 261 232 246 252 256 256 257 261 280 291 300 284 312 292 303 303 294 297 300 296 291 283 268 247 152 133
85 62 67 99 90 86 260 48 90 266 114 264 31 359 290 268 230 95 219 212 235 223 233 242 248 234 245 258 262 258 246 249 263 254 256 252 250 250 267 277 244 290 299 297 289 298 299 289 282 265 207 154 148 146
72 83 125 149 118 211 229 190 142 75 43 115 159 261 258 219 161 84 234 234 241 241 209 243 240 257 274 256 248 251 256 207 245 269 235 208 286 277 230 302 296 275 276 284 296 296 299 319 331 67 117 151 173 168
92 173 159 173 171 140 159 240 229 91 222 216 165 284 265 114 169 245 232 267 260 260 251 257 235 239 246 256 264 257 245 187 223 240 257 202 228 290 298 293 293 299 290 278 301 292 283 290 276 250 213 192 198 201
192 208 185 185 222 152 187 170 202 213 171 194 230 247 53 111 115 245 238 237 241 231 235 223 218 239 263 224 251 265 262 190 143 168 258 203 205 258 294 298 302 297 248 253 306 306 279 271 259 244 234 229 223 211
210 217 199 212 155 127 18 291 97 125 174 199 231 211 138 199 238 247 266 242 221 234 217 212 170 190 225 259 242 242 214 185 178 202 209 224 243 231 236 264 281 283 298 286 289 290 274 265 259 237 231 230 221 207
210 156 174 212 195 166 175 192 176 203 219 219 103 179 191 199 227 231 219 236 216 240 240 237 222 222 229 234 231 159 218 253 276 286 319 298 267 255 288 285 287 287 299 285 278 280 267 258 258 254 233 224 218 197
227 246 125 193 204 198 205 198 213 220 204 153 184 233 243 227 228 229 259 231 236 310 287 291 286 239 257 201 282 175 250 230 267 291 286 294 289 295 312 297 295 290 287 280 273 268 274 269 270 266 253 231 209 184
244 178 162 178 179 216 229 188 221 236 215 225 226 294 293 276 252 215 234 265 264 269 267 244 239 198 249 216 242 297 268 259 255 280 304 321 280 282 300 305 324 325 325 323 326 326 321 303 292 272 235 133 127 121
172 95 65 192 220 240 243 235 272 269 241 248 248 242 260 268 321 42 42 341 313 321 349 351 16 23 4 13 30 70 226 40 45 44 32 331 338 339 339 334 320 303 320 326 341 354 350 338 10 44 58 69 80 87
120 193 184 249 267 264 257 213 234 244 262 254 262 245 261 129 241 72 7 354 33 37 17 12 17 10 354 324 33 69 80 80 53 36 29 3 348 334 323 331 335 340 339 359 8 13 17 22 14 11 17 162 128 105
316 346 304 350 331 326 291 106 289 276 285 250 251 241 226 188 254 79 38 28 54 17 343 320 307 312 312 349 93 97 93 82 61 43 40 40 30 13 360 351 343 343 7 28 26 35 48 50 41 38 45 62 66 67